HEALTHSAT 1

Satellite information

Favourite Embed

Satellite Type and Status

PAYLOADIN ORBIT

Key statistics

Satellite HEALTHSAT 1 at a glance.

Uptime

11547

Days in orbit

Revolutions

≈ 14.3

Per day

Orbit

SSO

Sun Synchronous Orbit

Inclination

98.7

Latest

Satellite identification and parameters

Extended collection of information and parameters for HEALTHSAT 1.

Object identification

Identified? True

Debris? False

Object name: HEALTHSAT 1

International designator: 1993-061E

Object number (NORAD): 22827

Object ID (CCSDS): 22827

Country: UNITED STATES OF AMERICA (US)

Current information (Y/N): Y

RCS size: MEDIUM

Orbital parameters

Period: 100.536 minutes

Inclination: 98.6897 deg

SMA: 7162.107 km

Apoapsis: 790.952 km

Periapsis: 776.991 km

RAAN: 191.5235 deg

Eccentricy: 0.0009746

Argument of periapsis: 135.4375 deg

Mean anomaly: 37.8686 deg

Mean motion: 14.32325037 rev/day

Mean motion (dot): 0.00000245 rev/day2

B* drag term: 0.00010713 1/REarth

Two-line elements (TLE)

Creation date: May 8, 2025, 3:01 a.m.

Reference frame: TEME

Reference center: EARTH

Epoch: May 7, 2025, 10:29 p.m. UTC

TLE line 0: 0 HEALTHSAT 1

TLE line 1: 1 22827U 93061E 25127.93693063 .00000245 00000-0 10713-3 0 9992

TLE line 2: 2 22827 98.6897 191.5235 0009746 135.4375 37.8686 14.32325037650076

Live tracking on map

Real-time ground track for satellite HEALTHSAT 1.

In-orbit conjunctions

A list of the most updated potential collisions computed for object HEALTHSAT 1.

Target Orbit TCA Probability of collision Miss distance Type
FENGYUN 1C DEB SSO 2025-03-18 21:42:02 0.000772567 187.0 (m) DEBRIS
CZ-6A DEB LEO 2025-03-18 00:54:12 0.0003272797 460.0 (m) DEBRIS
CZ-6A DEB LEO 2025-01-21 10:56:56 0.001887945 179.0 (m) DEBRIS

Associated space launch

The satellites SPOT 1, 2 and 3 (Satellite Probatoire de l'Observation de la Terre) were the first generation of SPOT earth observation satellites operated by Spot Image.

HEALTHSAT 1 was lifted into orbit during the mission ‘Ariane 40 | SPOT 3’, on board a Ariane 40 space rocket.

The launch took place on Sept. 26, 1993, 1:45 a.m. from Ariane Launch Area 2.

For more information about the launch, click the button.

Launch to space Ariane 40 | SPOT 3
Ariane 40 | SPOT 3

Agency: N/A

Status: Launch Successful

Launch date: Sept. 26, 1993, 1:45 a.m. UTC

Rocket: Ariane 40

Launch pad: Ariane Launch Area 2

Location: Guiana Space Centre, French Guiana

...

Latest news about this satellite

There are no fresh news available about this satellite. Check back as we update our databases every day.


Newsletter sign-up

Weekly statistics, charts and insights to help you stay on top of the space industry.